SCP
0 0 0 0 0 0 0 0 0 0 0 0 0 0 0 0 0 0 0 0 0 0 0 0 0 0 0 0 0 0 0 0 0 0 0 0 0 0 0 0 0 0 0
0 0 0 0 0 0 0 0 0 0 0 0 0 0 0 0 0 0 0 0 0 0 0 0 0 0 0 0 0 0 0 0 0 0 0 0 0 0 0 0 0 0 0
0 0 0 0 0 0 0 0 0 0 0 0 0 0 0 0 0 0 0 0 0 0 0 0 0 0 0 0 0 0 0 0 0 0 0 0 0 0 0 0 0 0 0
0 0 0 0 0 0 0 0 0 0 0 0 0 0 0 0 0 0 0 0 0 0 0 0 0 0 0 0 0 0 0 0 0 0 0 0 0 0 0 0 0 0 0
0 0 0 0 0 0 0 0 0 0 0 0 0 0 0 0 0 0 0 0 0 0 0 0 0 0 0 0 0 0 0 0 0 0 0 0 0 0 0 0 0 0 0
0 0 0 0 0 0 0 0 0 0 0 0 0 0 0 0 0 0 0 0 0 0 0 0 0 0 0 0 0 0 0 0 0 0 0 0 0 0 0 0 0 0 0
0 0 0 0 0 0 0 0 0 0 0 0 0 0 0 0 0 0 0 0 0 0 0 0 0 0 0 0 0 0 0 0 0 0 0 0 0 0 0 0 0 0 0
0 0 0 0 0 0 0 0 0 0 0 0 0 0 0 0 0 0 0 0 0 0 0 0 0 0 0 0 0 0 0 0 0 0 0 0 0 0 0 0 0 0 0
0 0 0 0 0 0 0 0 0 0 0 0 0 0 0 0 0 0 0 0 0 0 0 0 0 0 0 0 0 0 0 0 0 0 0 0 0 0 0 0 0 0 0
0 0 0 0 0 0 0 0 0 0 0 0 0 0 0 0 0 0 0 0 0 0 0 0 0 0 0 0 0 0 0 0 0 0 0 0 0 0 0 0 0 0 0
0 0 0 0 0 0 0 0 0 0 0 0 0 0 0 0 0 0 0 0 0 0 0 0 0 0 0 0 0 0 0 0 0 0 0 0 0 0 0 0 0 0 0
0 0 0 0 0 0 0 0 0 0 0 0 0 0 0 0 0 0 0 0 0 0 0 0 0 0 0 0 0 0 0 0 0 0 0 0 0 0 0 0 0 0 0
0 0 0 0 0 0 0 0 0 0 0 0 0 0 0 0 0 0 0 0 0 0 0 0 0 0 0 0 0 0 0 0 0 0 0 0 0 0 0 0 0 0 0
0 0 0 0 0 0 0 0 0 0 0 0 0 0 0 0 0 0 0 0 0 0 0 0 0 0 0 0 0 0 0 0 0 0 0 0 0 0 0 0 0 0 0
0 0 0 0 0 0 0 0 0 0 0 0 0 0 0 0 0 0 0 0 0 0 0 0 0 0 0 0 0 0 0 0 0 0 0 0 0 0 0 0 0 0 0
0 0 0 0 0 0 0 0 0 0 0 0 0 0 0 0 0 0 0 0 0 0 0 0 0 0 0 0 0 0 0 0 0 0 0 0 0 0 0 0 0 0 0
0 0 0 0 0 0 0 0 0 0 0 0 0 0 0 0 0 0 0 0 0 0 0 0 0 0 0 0 0 0 0 0 0 0 0 0 0 0 0 0 0 0 0
0 0 0 0 0 0 0 0 0 0 0 0 0 0 0 0 0 0 0 0 0 0 0 0 0 0 0 0 0 0 0 0 0 0 0 0 0 0 0 0 0 0 0
0 0 0 0 0 0 0 0 0 0 0 0 0 0 0 0 0 0 0 0 0 0 0 0 0 0 0 0 0 0 0 0 0 0 0 0 0 0 0 0 0 0 0
-0 0 0 0 0 0 0 0 0 0 0 0 0 0 0 0 0 0 0 0 0 0 0 0 0 0 0 0 0 0 0 0 0 0 0 0 0 0 0 0 0 0 0
-0 -0 -0 0 0 0 0 0 0 0 0 0 0 0 0 0 0 0 0 0 0 0 0 0 0 0 0 0 0 0 0 0 0 0 0 0 0 0 0 0 0 0 0
-0 -0 -0 -0 -0 0 0 0 0 0 0 0 0 0 0 0 0 0 0 0 0 0 0 0 0 0 0 0 0 0 0 0 0 0 0 0 0 0 0 0 0 0 0
0 0 -0 -0 0 0 0 0 0 0 0 0 0 0 0 0 0 0 0 0 0 0 0 0 0 0 0 0 0 0 0 0 0 0 0 0 0 0 0 0 0 0 0
0 0 0 0 0 0 0 0 0 0 0 0 0 0 0 0 0 0 0 0 0 0 0 0 0 0 0 0 0 0 0 0 0 0 0 0 0 0 0 0 0 0 0
0 0 0 0 0 0 0 0 0 0 0 0 0 0 0 0 0 0 0 0 0 0 0 0 0 0 0 0 0 0 0 0 0 0 0 0 0 0 0 0 0 0 0
0 0 0 0 0 0 0 0 0 0 0 0 0 0 0 0 0 0 0 0 0 0 0 0 0 0 0 0 0 0 0 0 0 0 0 0 0 0 0 0 0 0 0
Wind_Speed_500mb
65 64 59 54 52 50 48 45 43 39 35 30 27 24 21 18 17 17 15 17 19 20 21 22 19 15 10 3 3 13 10 9 10 12 9 11 11 13 11 19 23 27 28
70 66 59 57 57 54 54 51 46 43 40 36 32 29 25 21 19 19 17 19 19 21 22 21 19 14 6 19 16 12 8 13 6 13 7 8 9 11 12 16 14 16 21
72 68 63 63 60 59 57 54 52 49 47 43 39 35 32 28 25 22 20 20 20 21 21 22 17 10 18 17 25 8 17 11 6 14 3 10 12 9 15 17 14 16 19
74 72 70 68 66 65 63 59 57 55 51 48 45 41 38 34 29 24 22 23 20 22 23 21 19 25 23 20 11 24 17 6 12 10 9 15 17 19 15 13 16 16 15
72 74 73 71 71 72 69 66 63 59 57 54 50 46 44 39 33 30 25 24 22 25 23 24 24 23 18 22 23 23 24 21 18 17 20 18 16 15 16 14 15 13 13
70 71 73 74 74 76 73 71 66 64 62 57 55 51 47 43 38 35 31 28 27 28 27 29 30 30 30 29 27 28 22 20 26 25 23 18 17 16 16 17 16 15 15
66 67 72 77 80 82 77 72 70 69 69 63 59 52 50 48 44 42 37 34 31 32 31 32 34 33 31 34 32 26 17 27 28 24 23 22 20 20 21 22 21 19 18
54 63 64 73 80 82 79 77 76 74 72 72 68 56 35 47 47 49 44 42 36 35 36 36 36 36 38 38 39 38 38 36 25 21 22 23 23 22 21 21 20 20 19
52 55 63 67 77 83 82 82 82 83 85 81 77 54 25 27 35 47 50 46 42 40 40 39 37 38 41 40 41 43 40 34 31 25 22 20 21 22 21 21 21 21 21
43 54 59 64 69 80 83 85 87 87 88 88 82 79 69 40 29 25 42 49 48 46 45 44 42 43 45 44 41 41 39 37 30 26 24 23 22 21 21 22 23 25 26
28 31 50 58 61 72 80 82 88 92 95 93 94 88 82 54 44 45 36 46 50 51 52 50 48 48 50 45 43 42 41 37 32 30 27 26 24 23 22 22 24 26 26
25 28 26 46 58 60 75 79 85 91 94 95 96 95 95 91 72 57 50 47 48 50 57 56 57 56 57 51 46 44 43 39 36 33 30 28 25 23 24 24 24 24 25
16 23 31 29 41 50 59 74 79 89 92 94 99 100 98 96 95 85 74 56 53 57 56 60 62 61 61 57 52 47 47 46 42 39 36 33 30 29 28 28 28 28 28
22 28 31 33 37 37 42 55 73 80 87 92 94 100 101 100 97 95 90 73 59 58 65 60 64 64 65 63 56 53 53 52 47 43 40 36 34 33 32 32 31 30 28
27 24 26 33 35 36 38 43 54 69 80 86 90 93 101 102 100 96 96 91 78 63 73 71 67 63 68 65 62 59 58 57 51 48 45 41 37 35 34 34 33 32 30
36 30 29 28 29 35 36 39 47 53 65 76 83 87 92 99 102 102 99 98 92 89 84 73 72 69 64 67 66 64 65 63 57 53 49 44 40 38 36 35 34 33 33
48 46 40 35 31 31 30 38 44 48 55 63 69 78 86 89 96 103 104 103 98 94 88 79 76 69 68 67 67 70 72 70 64 60 55 50 46 41 37 36 36 35 35
50 54 52 48 43 37 36 34 37 43 52 59 63 70 78 80 89 95 100 103 105 101 96 89 86 80 77 71 67 72 79 77 73 67 65 59 50 44 39 38 37 36 36
55 56 59 57 56 50 45 46 48 46 46 51 58 65 72 74 82 90 95 99 101 101 103 100 94 92 85 79 74 76 81 83 81 75 70 64 56 48 43 41 39 36 36
71 68 64 66 65 59 57 54 52 54 63 60 55 59 66 74 80 83 87 95 98 101 105 111 107 101 98 91 83 81 88 92 94 83 78 71 62 56 47 44 43 40 39
84 83 83 78 74 74 67 62 60 62 61 62 70 67 65 69 74 80 85 91 95 102 102 111 118 115 110 102 101 92 90 92 94 93 86 81 72 62 54 50 48 45 43
91 93 93 93 94 88 81 78 76 73 71 72 71 68 74 74 73 74 81 89 94 101 107 109 115 128 128 119 107 102 95 100 98 98 94 88 82 71 62 56 54 50 48
101 102 103 106 108 107 102 96 92 92 91 86 81 80 74 76 78 78 77 81 93 105 106 106 111 126 125 133 122 110 107 104 104 102 100 98 88 81 69 62 59 53 51
113 116 117 116 117 117 115 113 108 105 105 104 98 89 85 84 78 79 82 85 87 95 109 114 117 114 114 114 121 121 114 106 103 99 92 92 94 87 72 67 62 56 54
104 109 117 124 125 128 122 117 97 98 110 115 112 105 97 92 87 78 80 88 92 94 94 105 116 113 113 110 107 101 113 108 105 103 99 89 86 82 77 72 64 58 52
112 107 110 105 109 130 133 127 97 88 99 110 117 116 110 103 93 84 81 84 93 103 93 91 98 106 118 108 109 114 113 117 114 97 108 95 87 80 64 74 68 60 57
Wind_Direction_500mb
242 241 238 234 234 232 231 228 221 222 223 225 228 233 239 245 253 263 262 261 260 260 259 263 261 261 271 321 134 147 191 257 305 296 294 275 271 266 254 241 246 247 244
243 244 238 235 234 234 232 232 227 224 225 227 230 236 241 249 256 262 268 267 265 263 261 261 255 253 191 172 171 185 197 275 278 275 267 234 225 229 227 236 237 235 236
244 244 240 238 237 237 234 233 229 225 227 228 230 233 237 243 249 257 265 268 269 263 257 254 237 143 172 195 218 233 219 275 225 253 220 196 196 191 209 221 217 221 224
246 246 241 237 238 238 237 234 232 230 231 232 234 234 238 242 246 252 259 270 270 263 259 254 244 204 214 190 153 196 216 210 238 271 227 210 204 204 219 213 207 212 218
246 246 245 241 239 240 239 237 232 231 234 232 232 234 238 241 245 250 255 264 263 262 253 242 226 228 228 217 191 213 232 259 266 254 247 244 236 232 230 230 219 217 221
249 248 247 244 241 240 238 237 234 231 232 232 233 236 240 242 245 249 252 256 259 257 249 244 236 227 224 227 226 218 228 252 242 250 257 255 253 253 257 259 253 246 243
257 252 248 245 243 242 241 240 236 230 226 225 228 229 233 238 240 245 248 252 253 253 247 239 237 233 227 223 216 215 206 227 244 244 240 238 238 238 238 240 242 245 248
251 256 253 248 245 245 240 237 236 231 228 229 225 229 231 239 238 242 244 248 249 248 246 241 236 233 233 232 229 212 222 248 266 264 247 241 242 244 248 251 253 255 257
245 254 257 254 251 249 246 243 238 235 233 231 231 223 210 225 231 238 241 245 246 244 245 241 235 233 236 236 237 244 254 259 267 264 258 252 250 251 253 257 262 262 259
260 252 257 259 255 255 251 247 244 240 237 235 231 228 230 230 206 212 234 238 241 240 240 237 236 232 238 239 241 245 252 253 252 250 248 249 252 255 258 261 261 260 258
280 270 254 259 258 255 255 253 248 243 240 238 237 237 228 226 228 231 228 232 234 238 240 237 239 237 243 245 245 244 245 244 239 240 241 242 244 248 252 257 260 262 264
295 295 278 256 259 257 257 255 254 252 248 244 241 239 238 231 225 227 229 233 236 242 246 244 242 240 245 244 245 244 242 237 237 238 237 239 242 246 250 254 258 261 261
284 292 293 278 266 265 260 259 254 255 253 249 248 246 243 240 242 243 241 239 237 236 234 240 243 241 243 245 246 243 239 233 231 230 229 230 233 239 246 252 258 260 260
300 283 278 283 287 278 267 257 256 255 256 255 252 251 250 247 243 243 243 236 233 234 235 240 242 242 242 243 246 243 238 231 229 229 230 231 235 241 246 250 252 253 254
1 336 301 283 277 278 277 269 260 256 257 258 256 253 252 252 250 247 246 244 239 237 238 241 239 243 243 243 241 239 237 233 229 228 229 232 238 246 253 256 256 254 251
355 352 350 338 311 293 278 271 267 263 259 259 259 258 255 253 252 252 249 248 245 245 249 252 249 248 247 243 240 235 233 230 230 231 231 233 238 244 249 251 253 253 253
348 346 343 341 341 334 310 288 276 269 264 264 263 261 260 257 254 253 251 249 243 244 244 250 249 245 243 244 240 235 232 229 226 228 229 233 236 239 243 246 249 251 251
337 336 336 337 334 323 318 316 301 285 274 269 266 265 264 260 256 256 254 251 249 244 241 240 245 242 240 242 241 236 233 229 226 227 228 231 234 239 244 247 250 252 256
327 326 324 325 325 326 324 315 302 296 288 281 275 265 264 262 260 256 254 254 252 248 243 239 239 242 242 239 236 232 231 230 228 228 229 232 234 239 243 246 248 251 253
318 315 315 315 314 313 313 315 313 308 294 283 278 274 269 262 260 259 255 254 253 251 244 240 240 240 240 237 234 231 227 227 228 228 231 233 235 237 241 246 249 251 253
313 312 311 307 304 304 304 303 302 303 302 299 288 279 274 271 264 259 257 256 251 249 247 244 238 237 235 227 228 229 230 231 231 229 231 232 234 236 238 242 245 248 251
308 308 306 304 303 300 297 297 298 297 296 294 293 290 283 278 270 263 257 254 254 251 246 241 242 238 238 236 233 231 228 227 226 228 230 230 231 232 235 237 239 241 244
301 299 297 297 296 295 295 294 292 292 292 291 290 289 288 284 280 274 264 254 251 251 250 247 242 244 240 240 237 232 229 231 236 233 230 231 229 229 227 231 233 236 238
300 297 294 292 290 288 288 288 287 286 285 285 284 284 285 284 282 279 272 264 255 247 246 245 247 247 245 248 247 244 244 237 232 232 230 230 227 226 226 226 229 233 235
295 293 292 292 289 286 285 285 285 280 279 278 279 280 280 280 279 279 273 268 263 260 251 245 246 247 246 244 248 242 233 227 226 228 226 226 225 223 220 221 225 227 233
292 289 287 284 284 285 284 283 282 279 276 276 275 275 274 274 276 275 271 263 262 260 256 248 244 239 239 237 241 244 242 234 229 226 226 219 219 215 211 216 218 220 233
Wind_Speed_850mb
65 64 59 54 52 50 48 45 43 39 35 30 27 24 21 18 17 17 15 17 19 20 21 22 19 15 10 3 3 13 10 9 10 12 9 11 11 13 11 19 23 27 28
70 66 59 57 57 54 54 51 46 43 40 36 32 29 25 21 19 19 17 19 19 21 22 21 19 14 6 19 16 12 8 13 6 13 7 8 9 11 12 16 14 16 21
72 68 63 63 60 59 57 54 52 49 47 43 39 35 32 28 25 22 20 20 20 21 21 22 17 10 18 17 25 8 17 11 6 14 3 10 12 9 15 17 14 16 19
74 72 70 68 66 65 63 59 57 55 51 48 45 41 38 34 29 24 22 23 20 22 23 21 19 25 23 20 11 24 17 6 12 10 9 15 17 19 15 13 16 16 15
72 74 73 71 71 72 69 66 63 59 57 54 50 46 44 39 33 30 25 24 22 25 23 24 24 23 18 22 23 23 24 21 18 17 20 18 16 15 16 14 15 13 13
70 71 73 74 74 76 73 71 66 64 62 57 55 51 47 43 38 35 31 28 27 28 27 29 30 30 30 29 27 28 22 20 26 25 23 18 17 16 16 17 16 15 15
66 67 72 77 80 82 77 72 70 69 69 63 59 52 50 48 44 42 37 34 31 32 31 32 34 33 31 34 32 26 17 27 28 24 23 22 20 20 21 22 21 19 18
54 63 64 73 80 82 79 77 76 74 72 72 68 56 35 47 47 49 44 42 36 35 36 36 36 36 38 38 39 38 38 36 25 21 22 23 23 22 21 21 20 20 19
52 55 63 67 77 83 82 82 82 83 85 81 77 54 25 27 35 47 50 46 42 40 40 39 37 38 41 40 41 43 40 34 31 25 22 20 21 22 21 21 21 21 21
43 54 59 64 69 80 83 85 87 87 88 88 82 79 69 40 29 25 42 49 48 46 45 44 42 43 45 44 41 41 39 37 30 26 24 23 22 21 21 22 23 25 26
28 31 50 58 61 72 80 82 88 92 95 93 94 88 82 54 44 45 36 46 50 51 52 50 48 48 50 45 43 42 41 37 32 30 27 26 24 23 22 22 24 26 26
25 28 26 46 58 60 75 79 85 91 94 95 96 95 95 91 72 57 50 47 48 50 57 56 57 56 57 51 46 44 43 39 36 33 30 28 25 23 24 24 24 24 25
16 23 31 29 41 50 59 74 79 89 92 94 99 100 98 96 95 85 74 56 53 57 56 60 62 61 61 57 52 47 47 46 42 39 36 33 30 29 28 28 28 28 28
22 28 31 33 37 37 42 55 73 80 87 92 94 100 101 100 97 95 90 73 59 58 65 60 64 64 65 63 56 53 53 52 47 43 40 36 34 33 32 32 31 30 28
27 24 26 33 35 36 38 43 54 69 80 86 90 93 101 102 100 96 96 91 78 63 73 71 67 63 68 65 62 59 58 57 51 48 45 41 37 35 34 34 33 32 30
36 30 29 28 29 35 36 39 47 53 65 76 83 87 92 99 102 102 99 98 92 89 84 73 72 69 64 67 66 64 65 63 57 53 49 44 40 38 36 35 34 33 33
48 46 40 35 31 31 30 38 44 48 55 63 69 78 86 89 96 103 104 103 98 94 88 79 76 69 68 67 67 70 72 70 64 60 55 50 46 41 37 36 36 35 35
50 54 52 48 43 37 36 34 37 43 52 59 63 70 78 80 89 95 100 103 105 101 96 89 86 80 77 71 67 72 79 77 73 67 65 59 50 44 39 38 37 36 36
55 56 59 57 56 50 45 46 48 46 46 51 58 65 72 74 82 90 95 99 101 101 103 100 94 92 85 79 74 76 81 83 81 75 70 64 56 48 43 41 39 36 36
71 68 64 66 65 59 57 54 52 54 63 60 55 59 66 74 80 83 87 95 98 101 105 111 107 101 98 91 83 81 88 92 94 83 78 71 62 56 47 44 43 40 39
84 83 83 78 74 74 67 62 60 62 61 62 70 67 65 69 74 80 85 91 95 102 102 111 118 115 110 102 101 92 90 92 94 93 86 81 72 62 54 50 48 45 43
91 93 93 93 94 88 81 78 76 73 71 72 71 68 74 74 73 74 81 89 94 101 107 109 115 128 128 119 107 102 95 100 98 98 94 88 82 71 62 56 54 50 48
101 102 103 106 108 107 102 96 92 92 91 86 81 80 74 76 78 78 77 81 93 105 106 106 111 126 125 133 122 110 107 104 104 102 100 98 88 81 69 62 59 53 51
113 116 117 116 117 117 115 113 108 105 105 104 98 89 85 84 78 79 82 85 87 95 109 114 117 114 114 114 121 121 114 106 103 99 92 92 94 87 72 67 62 56 54
104 109 117 124 125 128 122 117 97 98 110 115 112 105 97 92 87 78 80 88 92 94 94 105 116 113 113 110 107 101 113 108 105 103 99 89 86 82 77 72 64 58 52
112 107 110 105 109 130 133 127 97 88 99 110 117 116 110 103 93 84 81 84 93 103 93 91 98 106 118 108 109 114 113 117 114 97 108 95 87 80 64 74 68 60 57
Wind_Direction_850mb
242 241 238 234 234 232 231 228 221 222 223 225 228 233 239 245 253 263 262 261 260 260 259 263 261 261 271 321 134 147 191 257 305 296 294 275 271 266 254 241 246 247 244
243 244 238 235 234 234 232 232 227 224 225 227 230 236 241 249 256 262 268 267 265 263 261 261 255 253 191 172 171 185 197 275 278 275 267 234 225 229 227 236 237 235 236
244 244 240 238 237 237 234 233 229 225 227 228 230 233 237 243 249 257 265 268 269 263 257 254 237 143 172 195 218 233 219 275 225 253 220 196 196 191 209 221 217 221 224
246 246 241 237 238 238 237 234 232 230 231 232 234 234 238 242 246 252 259 270 270 263 259 254 244 204 214 190 153 196 216 210 238 271 227 210 204 204 219 213 207 212 218
246 246 245 241 239 240 239 237 232 231 234 232 232 234 238 241 245 250 255 264 263 262 253 242 226 228 228 217 191 213 232 259 266 254 247 244 236 232 230 230 219 217 221
249 248 247 244 241 240 238 237 234 231 232 232 233 236 240 242 245 249 252 256 259 257 249 244 236 227 224 227 226 218 228 252 242 250 257 255 253 253 257 259 253 246 243
257 252 248 245 243 242 241 240 236 230 226 225 228 229 233 238 240 245 248 252 253 253 247 239 237 233 227 223 216 215 206 227 244 244 240 238 238 238 238 240 242 245 248
251 256 253 248 245 245 240 237 236 231 228 229 225 229 231 239 238 242 244 248 249 248 246 241 236 233 233 232 229 212 222 248 266 264 247 241 242 244 248 251 253 255 257
245 254 257 254 251 249 246 243 238 235 233 231 231 223 210 225 231 238 241 245 246 244 245 241 235 233 236 236 237 244 254 259 267 264 258 252 250 251 253 257 262 262 259
260 252 257 259 255 255 251 247 244 240 237 235 231 228 230 230 206 212 234 238 241 240 240 237 236 232 238 239 241 245 252 253 252 250 248 249 252 255 258 261 261 260 258
280 270 254 259 258 255 255 253 248 243 240 238 237 237 228 226 228 231 228 232 234 238 240 237 239 237 243 245 245 244 245 244 239 240 241 242 244 248 252 257 260 262 264
295 295 278 256 259 257 257 255 254 252 248 244 241 239 238 231 225 227 229 233 236 242 246 244 242 240 245 244 245 244 242 237 237 238 237 239 242 246 250 254 258 261 261
284 292 293 278 266 265 260 259 254 255 253 249 248 246 243 240 242 243 241 239 237 236 234 240 243 241 243 245 246 243 239 233 231 230 229 230 233 239 246 252 258 260 260
300 283 278 283 287 278 267 257 256 255 256 255 252 251 250 247 243 243 243 236 233 234 235 240 242 242 242 243 246 243 238 231 229 229 230 231 235 241 246 250 252 253 254
1 336 301 283 277 278 277 269 260 256 257 258 256 253 252 252 250 247 246 244 239 237 238 241 239 243 243 243 241 239 237 233 229 228 229 232 238 246 253 256 256 254 251
355 352 350 338 311 293 278 271 267 263 259 259 259 258 255 253 252 252 249 248 245 245 249 252 249 248 247 243 240 235 233 230 230 231 231 233 238 244 249 251 253 253 253
348 346 343 341 341 334 310 288 276 269 264 264 263 261 260 257 254 253 251 249 243 244 244 250 249 245 243 244 240 235 232 229 226 228 229 233 236 239 243 246 249 251 251
337 336 336 337 334 323 318 316 301 285 274 269 266 265 264 260 256 256 254 251 249 244 241 240 245 242 240 242 241 236 233 229 226 227 228 231 234 239 244 247 250 252 256
327 326 324 325 325 326 324 315 302 296 288 281 275 265 264 262 260 256 254 254 252 248 243 239 239 242 242 239 236 232 231 230 228 228 229 232 234 239 243 246 248 251 253
318 315 315 315 314 313 313 315 313 308 294 283 278 274 269 262 260 259 255 254 253 251 244 240 240 240 240 237 234 231 227 227 228 228 231 233 235 237 241 246 249 251 253
313 312 311 307 304 304 304 303 302 303 302 299 288 279 274 271 264 259 257 256 251 249 247 244 238 237 235 227 228 229 230 231 231 229 231 232 234 236 238 242 245 248 251
308 308 306 304 303 300 297 297 298 297 296 294 293 290 283 278 270 263 257 254 254 251 246 241 242 238 238 236 233 231 228 227 226 228 230 230 231 232 235 237 239 241 244
301 299 297 297 296 295 295 294 292 292 292 291 290 289 288 284 280 274 264 254 251 251 250 247 242 244 240 240 237 232 229 231 236 233 230 231 229 229 227 231 233 236 238
300 297 294 292 290 288 288 288 287 286 285 285 284 284 285 284 282 279 272 264 255 247 246 245 247 247 245 248 247 244 244 237 232 232 230 230 227 226 226 226 229 233 235
295 293 292 292 289 286 285 285 285 280 279 278 279 280 280 280 279 279 273 268 263 260 251 245 246 247 246 244 248 242 233 227 226 228 226 226 225 223 220 221 225 227 233
292 289 287 284 284 285 284 283 282 279 276 276 275 275 274 274 276 275 271 263 262 260 256 248 244 239 239 237 241 244 242 234 229 226 226 219 219 215 211 216 218 220 233